Погода в Сухобезводном

Россия / Нижегородская область     57°03′00″N   44°53′43″E
темп.,
°C
ветер,
м/с
пор.,
м/с
влажн.,
%
обл.,
%
осадки,
мм/ч
давл.,
гПа
погр.,
м
16 апреля, пт
пт1600:00+7св5128998 0.0 1023537
03:00+6св51386100 0.0 1024565
06:00+5всв51487100 0.0 1025553
09:00+7всв5128353 0.0 1025601
12:00+11всв697150 0.0 1026862
15:00+11всв58625 0.0 1026960
18:00+9всв5106927 0.0 1026606
21:00+6всв412785 0.0 1028440
17 апреля, сб
сб1700:00+4всв411825 0.0 1028327
03:00+2всв411845 0.0 1029276
06:00+2всв411805 0.0 1029308
09:00+7всв59555 0.0 1029599
12:00+11всв57425 0.0 10281042
15:00+12всв46401 0.0 10271187
18:00+9всв37550 0.0 1027289
21:00+5св310750 0.0 1027204
18 апреля, вс
вс1800:00+3св39800 0.0 1027194
03:00+2св38870 0.0 1027144
06:00+2св39855 0.0 1027242
09:00+8всв47595 0.0 1027726
12:00+12всв574780 0.0 10261497
15:00+12всв5646100 0.0 10261923
18:00+8всв51071100 0.0 1028814
21:00+5всв41068100 0.0 1029805
19 апреля, пн
пн1900:00+4всв51156100 0.0 1030623
03:00+2всв4106199 0.0 1030496
06:00+1всв5116781 0.0 1031452
09:00+5в69460 0.0 1032993
12:00+8в68330 0.0 10321704
15:00+8в68300 0.0 10311812
18:00+7в59390 0.0 10311091
21:00+3в412480 0.0 1032433
20 апреля, вт
вт2000:00+1в413560 0.0 1032440
03:000в412600 0.0 1032369
06:000в412565 0.0 1032430
09:00+6вюв59431 0.0 1031862
12:00+9юв69415 0.0 10301475
15:00+11вюв69307 0.0 10271533
18:00+8вюв61240100 0.0 10261170
21:00+6вюв61444100 0.0 1025862